GSAT0209 (GALILEO 12)

Last updated on Nov. 15, 2019, 4:20 a.m. UTC

1 41174U 15079A   19317.69966166  .00000092  00000-0  00000-0 0  9990
2 41174  54.9606 167.4463 0003396 334.5033  25.5827  1.70473265 24316
UTC
Height (km)
Latitude
Longitude
Inclination
Orbital Period
UTC large
Height (km)
Speed (km/s)
/
Latitude / Longitude
Inclination (degrees)
Orbital Period (minutes)
Azimuth
Elevation
Range (km)
Doppler Factor
iOS Compass Heading
iOS Angle

Next 30 passes for location: Hong Kong

Rise time Rise Azimuth (degrees) Set time Set Azimuth (degrees) Duration Max altitude (degrees)

No matching passes for this satellites